Stations météo

Publicité
Cap-de-la Heve, France (7028): Température de l'air & dewpoint: 16.07.2019 17:00:00 - 22.07.2019 17:00:00 (CEST)Cap-de-la Heve, France (7028): Température de l'air 5cm: 16.07.2019 17:00:00 - 22.07.2019 17:00:00 (CEST)Cap-de-la Heve, France (7028): Vitesse du vent & gusts: 16.07.2019 17:00:00 - 22.07.2019 17:00:00 (CEST)Cap-de-la Heve, France (7028): Direction du vent: 16.07.2019 17:00:00 - 22.07.2019 17:00:00 (CEST)Cap-de-la Heve, France (7028): reduced air pressure: 16.07.2019 17:00:00 - 22.07.2019 17:00:00 (CEST)Cap-de-la Heve, France (7028): visibility: 16.07.2019 17:00:00 - 22.07.2019 17:00:00 (CEST)Cap-de-la Heve, France (7028): Quantités de précipitations: 16.07.2019 17:00:00 - 22.07.2019 17:00:00 (CEST)
Date & Time tt [°C] td [°C] tt 5cm [°C] ff [km/h] ff [knt] fx [km/h] fx [knt] dd ppp [hPa] vv [km] rr [mm]
22.07.2019 17:00:00 23,1 15,2 26,7 13 7 29 16 N 1022,8 20 0,0
22.07.2019 16:00:00 22,1 15,7 25,0 16 9 27 15 N 1023,4 - 0,0
22.07.2019 15:00:00 20,9 15,7 26,2 17 9 26 14 N 1024,0 - 0,0
22.07.2019 14:00:00 21,3 15,6 27,6 13 7 19 11 N 1024,4 20 0,0
22.07.2019 13:00:00 21,5 15,6 27,9 9 5 18 10 N 1024,5 - 0,0
22.07.2019 12:00:00 20,4 15,6 25,7 10 6 16 9 NNW 1024,6 - 0,0
22.07.2019 11:00:00 19,6 15,9 26,4 8 5 15 8 NW 1024,7 20 0,0
22.07.2019 10:00:00 19,3 16,5 22,9 7 4 16 9 NNW 1024,7 - 0,0
22.07.2019 09:00:00 19,8 15,0 20,9 8 4 14 7 NNW 1024,4 - 0,0
22.07.2019 08:00:00 19,3 13,7 17,5 4 2 7 4 ENE 1024,0 - 0,0
22.07.2019 07:00:00 18,0 13,3 15,9 6 3 10 5 E 1024,0 - 0,0
22.07.2019 06:00:00 17,4 13,9 15,6 5 3 8 4 SE 1024,2 - 0,0
22.07.2019 05:00:00 17,2 14,8 15,8 4 2 9 5 SE 1024,2 - 0,0
22.07.2019 04:00:00 17,6 14,9 16,2 3 2 9 5 SSW 1024,1 - 0,0
22.07.2019 03:00:00 18,0 14,1 16,3 4 2 6 4 SE 1024,1 - 0,0
22.07.2019 02:00:00 18,4 14,1 16,5 4 2 13 7 ESE 1024,2 20 0,0
22.07.2019 01:00:00 18,9 13,7 17,5 8 4 12 6 E 1023,9 - 0,0
22.07.2019 00:00:00 19,2 12,9 17,1 4 2 8 4 ESE 1024,0 - 0,0
21.07.2019 23:00:00 19,7 13,2 18,6 6 4 12 7 N 1023,9 20 0,0
21.07.2019 22:00:00 20,5 13,2 18,6 9 5 19 10 NNW 1023,5 - 0,0
21.07.2019 21:00:00 21,1 13,3 20,9 10 5 17 9 NNW 1023,3 - 0,0
21.07.2019 20:00:00 21,8 13,2 22,7 8 5 14 7 NNW 1022,9 - 0,0
21.07.2019 19:00:00 21,6 12,7 25,7 9 5 19 10 N 1022,9 - 0,0
21.07.2019 18:00:00 23,1 12,7 27,9 6 4 11 6 W 1022,8 - 0,0
21.07.2019 17:00:00 21,5 11,5 25,6 6 3 20 11 NNW 1023,2 20 0,0
21.07.2019 16:00:00 21,0 10,2 27,1 10 5 21 11 N 1023,4 - 0,0
21.07.2019 15:00:00 20,1 11,0 25,6 8 5 13 7 NNW 1023,4 - 0,0
21.07.2019 14:00:00 20,0 13,5 24,2 5 3 14 8 W 1023,6 - 0,0
21.07.2019 13:00:00 19,4 14,4 22,6 7 4 13 7 SW 1023,6 - 0,0
21.07.2019 12:00:00 19,2 14,9 21,9 7 4 16 8 WSW 1023,3 - 0,0
21.07.2019 11:00:00 18,7 14,4 23,1 11 6 17 9 W 1023,0 20 0,0
21.07.2019 10:00:00 18,0 13,3 22,6 11 6 17 9 WNW 1022,5 - 0,0
21.07.2019 09:00:00 17,2 13,7 19,1 10 5 23 13 NW 1022,0 - 0,0
21.07.2019 08:00:00 16,8 14,3 16,3 10 5 32 18 WNW 1021,4 20 0,0
21.07.2019 07:00:00 16,3 14,3 15,9 16 8 29 16 W 1020,8 - 0,0
21.07.2019 06:00:00 16,2 13,9 16,0 18 10 33 18 W 1020,2 - 0,0
21.07.2019 05:00:00 16,3 14,0 15,6 18 10 34 18 W 1019,9 20 0,0
21.07.2019 04:00:00 16,2 14,2 15,7 20 11 34 19 W 1019,5 - 0,0
21.07.2019 03:00:00 16,4 13,3 15,7 18 10 37 20 W 1019,0 - 0,0
21.07.2019 02:00:00 16,7 13,2 15,9 11 6 35 19 W 1019,0 - 0,0
21.07.2019 01:00:00 17,0 13,3 16,1 10 5 31 17 WNW 1018,5 - 0,0
21.07.2019 00:00:00 17,2 13,1 16,3 9 5 32 17 WNW 1018,1 - 0,0
20.07.2019 23:00:00 17,6 13,9 16,6 11 6 24 13 WNW 1017,6 20 0,0
20.07.2019 22:00:00 17,8 15,1 17,0 10 6 23 13 WNW 1016,6 - 0,0
20.07.2019 21:00:00 18,5 15,9 18,6 8 4 34 18 N 1015,9 - 0,0
20.07.2019 20:00:00 20,2 15,8 21,9 20 11 32 18 WNW 1014,7 20 0,0
20.07.2019 19:00:00 21,1 15,9 26,5 15 8 25 14 WNW 1014,3 - 0,0
20.07.2019 18:00:00 21,2 15,9 27,1 16 9 29 16 WNW 1014,0 - 0,0
20.07.2019 17:00:00 21,4 16,1 25,1 16 9 30 16 WNW 1013,5 - 0,0
20.07.2019 16:00:00 21,4 15,9 25,5 15 8 29 16 W 1013,2 - 0,0
20.07.2019 15:00:00 21,5 16,7 24,1 20 11 28 15 W 1012,9 - 0,0
20.07.2019 14:00:00 20,4 17,0 22,5 18 10 33 18 W 1012,6 20 0,0
20.07.2019 13:00:00 19,4 17,2 20,4 24 13 38 21 W 1012,0 - 0,0
20.07.2019 12:00:00 18,4 17,6 16,0 21 11 45 24 W 1011,2 - 6,9
20.07.2019 11:00:00 18,7 17,5 18,0 19 10 44 24 SW 1010,1 6 2,0
20.07.2019 10:00:00 19,7 16,9 19,8 17 9 40 22 SSW 1009,8 - 0,0
20.07.2019 09:00:00 19,2 16,4 19,1 26 14 39 21 SSW 1009,6 - 0,0
20.07.2019 08:00:00 19,0 16,0 19,1 16 8 49 26 SSW 1009,3 - 0,0
20.07.2019 07:00:00 19,1 16,3 18,8 12 6 32 17 SSW 1009,3 - 0,0
20.07.2019 06:00:00 19,2 17,3 18,6 16 8 22 12 S 1009,2 - 0,0
20.07.2019 05:00:00 19,2 17,0 19,0 5 3 27 15 SSW 1009,4 20 0,0
20.07.2019 04:00:00 19,6 17,2 19,4 13 7 32 18 WSW 1009,8 - 0,0
20.07.2019 03:00:00 20,1 17,1 20,1 8 5 24 13 S 1009,7 - 0,0
20.07.2019 02:00:00 20,7 17,1 20,5 12 6 24 13 SSW 1009,9 20 0,0
20.07.2019 01:00:00 21,7 16,4 21,5 15 8 22 12 S 1010,4 - 0,0
20.07.2019 00:00:00 21,9 16,6 21,6 11 6 16 9 S 1010,5 - 0,0
19.07.2019 23:00:00 22,4 16,4 21,6 6 3 11 6 SSE 1010,9 30 0,0
19.07.2019 22:00:00 22,5 16,3 21,9 5 3 22 12 SE 1011,3 - 0,0
19.07.2019 21:00:00 22,8 16,1 22,7 10 5 14 7 SSE 1011,6 - 0,0
19.07.2019 20:00:00 22,4 15,7 22,9 3 1 12 6 SSE 1011,8 - 0,0
19.07.2019 19:00:00 22,7 15,8 24,0 0 0 14 7 N 1012,4 - 0,0
19.07.2019 18:00:00 21,9 15,7 24,4 9 5 18 10 WNW 1013,1 - 0,0
19.07.2019 17:00:00 22,2 15,8 22,4 9 5 18 10 W 1013,3 30 0,0
19.07.2019 16:00:00 22,2 14,1 25,0 8 4 21 11 WSW 1013,6 - 0,0
19.07.2019 15:00:00 22,4 13,7 25,3 10 5 21 11 SSW 1013,6 - 0,0
19.07.2019 14:00:00 21,8 14,4 24,7 11 6 18 10 SSW 1014,0 30 0,0
19.07.2019 13:00:00 20,7 14,3 22,9 6 4 18 10 SSW 1014,6 - 0,0
19.07.2019 12:00:00 19,7 14,5 22,5 12 7 22 12 S 1014,7 - 0,0
19.07.2019 11:00:00 19,1 15,2 20,6 9 5 21 12 SSW 1015,1 - 0,0
19.07.2019 10:00:00 17,6 14,9 18,0 4 2 27 14 SSW 1015,3 - 0,0
19.07.2019 09:00:00 16,8 14,6 17,0 5 3 24 13 SSW 1015,3 - 0,0
19.07.2019 08:00:00 16,4 13,7 16,4 4 2 27 15 SSW 1015,2 20 0,0
19.07.2019 07:00:00 16,1 14,1 15,7 8 4 29 16 SW 1014,8 - 0,0
19.07.2019 06:00:00 16,0 14,2 15,6 9 5 29 15 SW 1014,8 - 0,0
19.07.2019 05:00:00 16,3 13,8 15,5 10 6 23 12 WSW 1014,7 20 0,0
19.07.2019 04:00:00 16,6 14,1 16,3 15 8 29 16 W 1015,0 - 0,0
19.07.2019 03:00:00 17,0 12,5 16,6 14 8 27 15 WSW 1015,3 - 0,0
19.07.2019 02:00:00 17,0 13,5 16,5 15 8 26 14 W 1015,1 - 0,0
19.07.2019 01:00:00 16,9 14,2 16,3 3 2 21 11 WNW 1015,1 - 0,0
19.07.2019 00:00:00 16,8 13,7 16,4 11 6 18 10 WNW 1014,9 - 0,0
18.07.2019 23:00:00 16,8 13,7 16,5 12 7 22 12 NW 1014,9 15 0,0
18.07.2019 22:00:00 17,1 13,6 16,8 10 6 24 13 NW 1014,5 - 0,0
18.07.2019 21:00:00 17,2 13,1 17,4 10 5 23 13 NW 1014,2 - 0,0
18.07.2019 20:00:00 17,9 14,0 19,7 14 7 29 16 NW 1014,0 15 0,0
18.07.2019 19:00:00 17,9 15,2 20,0 8 5 22 12 NNW 1013,8 - 0,0
18.07.2019 18:00:00 18,2 14,9 18,5 5 3 17 9 NW 1013,7 - 0,0
18.07.2019 17:00:00 18,2 16,0 19,7 6 3 17 9 NNW 1013,6 - 0,0
18.07.2019 16:00:00 19,2 16,4 18,5 8 4 30 16 SW 1013,4 - 0,0
18.07.2019 15:00:00 18,5 16,3 19,2 11 6 36 19 SW 1013,6 - 0,0
18.07.2019 14:00:00 19,1 16,3 18,4 16 9 42 23 SW 1013,3 15 0,0
18.07.2019 13:00:00 17,4 16,1 16,6 5 3 38 20 SW 1013,7 - 0,0
18.07.2019 12:00:00 17,4 15,0 17,4 8 5 32 18 S 1013,3 - 0,0
18.07.2019 11:00:00 17,2 14,7 17,2 8 4 34 18 SSE 1013,1 15 0,0
18.07.2019 10:00:00 16,5 14,3 16,1 9 5 34 18 SSW 1013,2 - 0,0
18.07.2019 09:00:00 16,3 14,3 16,7 5 3 29 16 SSW 1013,2 - 0,0
18.07.2019 08:00:00 16,1 14,5 15,9 3 2 30 16 SSE 1013,2 - 0,0
18.07.2019 07:00:00 15,7 14,4 15,5 8 5 32 17 SSW 1013,1 - 0,0
18.07.2019 06:00:00 16,0 14,7 15,7 5 3 29 16 E 1013,1 - 0,0
18.07.2019 05:00:00 16,0 14,7 15,7 9 5 31 17 WSW 1013,2 20 0,0
18.07.2019 04:00:00 16,1 14,6 15,8 11 6 29 16 WSW 1013,5 - 0,0
18.07.2019 03:00:00 16,1 14,3 15,6 8 4 32 17 SW 1013,9 - 0,0
18.07.2019 02:00:00 16,3 13,6 15,9 18 10 31 17 W 1014,3 - 0,0
18.07.2019 01:00:00 16,5 14,5 15,3 11 6 29 15 W 1014,5 - 0,0
18.07.2019 00:00:00 16,0 14,7 14,9 10 5 18 10 WNW 1014,5 - 0,0
17.07.2019 23:00:00 16,1 13,8 14,7 9 5 14 8 NW 1014,7 20 0,0
17.07.2019 22:00:00 16,3 12,3 15,2 4 2 11 6 NW 1014,3 - 0,0
17.07.2019 21:00:00 17,0 12,5 17,4 8 5 24 13 N 1014,2 - 0,0
17.07.2019 20:00:00 17,6 11,6 18,3 13 7 27 14 N 1014,2 - 0,0
17.07.2019 19:00:00 19,1 10,1 20,2 12 7 24 13 N 1014,2 - 0,0
17.07.2019 18:00:00 20,7 11,6 23,4 4 2 17 9 NNW 1014,5 - 0,0
17.07.2019 17:00:00 20,5 9,4 24,9 8 4 16 9 NNW 1014,8 10 0,0
17.07.2019 16:00:00 19,4 11,9 25,3 9 5 16 9 NNW 1015,4 - 0,0
17.07.2019 15:00:00 18,7 12,2 26,9 11 6 19 11 NNW 1015,6 - 0,0
17.07.2019 14:00:00 18,4 13,5 24,7 9 5 17 9 NNW 1015,9 10 0,0
17.07.2019 13:00:00 18,7 14,2 24,8 10 5 16 9 W 1016,2 - 0,0
17.07.2019 12:00:00 18,4 14,3 24,4 9 5 16 8 W 1016,2 - 0,0
17.07.2019 11:00:00 18,3 14,6 21,9 10 5 16 8 W 1016,2 10 0,0
17.07.2019 10:00:00 17,2 14,8 21,2 0 0 0 0 N 1016,3 - 0,0
17.07.2019 09:00:00 16,8 13,9 19,5 0 0 0 0 N 1016,1 - 0,0
17.07.2019 08:00:00 15,6 13,3 15,8 0 0 0 0 N 1016,2 10 0,0
17.07.2019 07:00:00 14,8 13,7 13,7 0 0 12 6 N 1016,2 - 0,0
17.07.2019 06:00:00 14,6 14,0 14,0 8 4 14 8 NNE 1016,4 - 0,2
17.07.2019 05:00:00 14,9 14,3 14,4 8 5 16 8 N 1016,6 15 0,0
17.07.2019 04:00:00 15,3 14,7 14,7 9 5 16 8 N 1016,9 - 0,0
17.07.2019 03:00:00 15,4 14,6 14,7 8 4 13 7 N 1017,4 - 0,0
17.07.2019 02:00:00 15,6 14,6 14,9 8 4 11 6 N 1017,7 10 0,0
17.07.2019 01:00:00 15,8 14,7 15,2 7 4 13 7 N 1017,7 - 0,0
17.07.2019 00:00:00 16,4 14,9 15,4 9 5 15 8 N 1017,8 - 0,0
16.07.2019 23:00:00 18,0 13,7 15,1 4 2 11 6 NNW 1017,9 10 0,0
16.07.2019 22:00:00 19,8 10,5 17,0 0 0 9 5 N 1017,6 - 0,0
16.07.2019 21:00:00 20,4 10,2 20,2 5 3 20 11 N 1017,6 - 0,0
16.07.2019 20:00:00 20,7 9,9 21,5 8 5 23 13 N 1017,7 - 0,0
16.07.2019 19:00:00 20,0 10,7 21,5 14 7 25 13 N 1017,8 - 0,0
16.07.2019 18:00:00 20,8 11,7 24,5 13 7 24 13 N 1018,0 - 0,0
16.07.2019 17:00:00 22,4 10,5 26,1 7 4 17 9 N 1018,3 10 0,0

tt = Température de l'air
td = dewpoint
tt 5cm = Température de l'air 5cm
ff = Vitesse du vent
fx = gusts
dd = Direction du vent
ppp = reduced air pressure
vv = visibility
rr = Quantités de précipitations

stations d'obs. à proximité